[[{"header":{"parameterUnit":"m.s-1","parameterCategory":2,"la1":30.2991,"la2":30.254,"lo1":-89.0895,"lo2":-89.0444,"dy":0.0017,"dx":0.0017,"nx":28,"ny":28,"refTime":"2025-05-26T09:00:00:Z","depth":"0","parameterNumber":2,"parameterNumberName":"U-component_of_CURRENTS"},"data":[0,0,0,0,0,0,0,0,0,0,0,0,0,0,0,0,0,0,0,0,0,0,0,0,0,0,0,0,0,0,0,0,0,0,0,0,0,0,0,0,0,0,0,0,0,0,0,0,0,0,0,0,0,0,0,0,0,0,-0.2682,-0.2683,0,-0.271,-0.271,-0.271,-0.2672,-0.2671,-0.267,-0.2669,-0.2627,-0.2627,-0.2627,0,0,0,0,0,0,0,0,0,0,0,0,0,-0.2606,-0.2607,-0.2682,-0.2683,-0.2683,-0.271,-0.271,-0.271,-0.2672,-0.2671,-0.267,-0.2669,-0.2627,-0.2627,-0.2627,0,0,0,0,0,0,0,0,0,0,0,0,0,-0.2634,-0.2608,-0.2682,-0.267,-0.2669,-0.271,-0.271,-0.271,-0.2673,-0.2671,-0.267,-0.2668,-0.2627,-0.2627,-0.2627,-0.2659,0,0,-0.2627,-0.2627,0,0,0,0,0,0,0,0,-0.2633,-0.2637,-0.2671,-0.2671,-0.267,-0.2688,-0.2668,-0.269,-0.2673,-0.2668,-0.2669,-0.2667,-0.2644,-0.2643,-0.2648,-0.2657,-0.2655,-0.2627,-0.2627,-0.2626,-0.2626,0,0,0,0,0,0,0,-0.2631,-0.2635,-0.269,-0.2672,-0.2672,-0.2667,-0.2668,-0.2672,-0.2662,-0.2669,-0.2667,-0.2675,-0.2643,-0.2649,-0.2647,-0.2654,-0.2627,-0.2626,-0.2626,-0.2626,-0.268,-0.2681,0,0,0,0,0,0,-0.2635,-0.2634,-0.2689,-0.2691,-0.265,-0.2669,-0.2671,-0.2682,-0.2663,-0.266,-0.2676,-0.2673,-0.265,-0.2647,-0.2645,-0.2671,-0.2626,-0.2626,-0.2626,-0.2678,-0.268,-0.2682,0,0,0,0,0,0,-0.2633,-0.264,-0.2688,-0.2665,-0.2671,-0.2673,-0.2685,-0.2683,-0.2681,-0.267,-0.2665,-0.2675,-0.2648,-0.2646,-0.2652,-0.2669,-0.2626,-0.2626,-0.2676,-0.2679,-0.2681,-0.2728,0,0,0,0,0,0,-0.2631,-0.2639,-0.2642,-0.2666,-0.2673,-0.2716,-0.2687,-0.2685,-0.2691,-0.2686,-0.2668,-0.2662,-0.2647,-0.2652,-0.2652,-0.2668,-0.2626,-0.2674,-0.2677,-0.268,-0.2725,-0.2732,-0.2738,0,0,0,0,0,-0.2628,-0.2645,-0.2642,-0.2649,-0.2679,-0.2718,-0.2721,-0.2714,-0.2692,-0.2702,-0.2688,-0.2662,-0.267,-0.2654,-0.2652,-0.2669,-0.2673,-0.2676,-0.268,-0.2722,-0.273,-0.2738,0,0,0,0,0,0,-0.2609,-0.2644,-0.2641,-0.2665,-0.269,-0.2712,-0.2719,-0.2717,-0.2716,-0.2705,-0.2682,-0.2678,-0.2691,-0.268,-0.2662,-0.2695,-0.2668,-0.2671,-0.27,-0.2708,-0.2714,-0.2715,-0.2626,0,0,0,0,0,-0.261,-0.2627,-0.2662,-0.2677,-0.2693,-0.2705,-0.2716,-0.2719,-0.2726,-0.2722,-0.2711,-0.2703,-0.2709,-0.2705,-0.2709,-0.2727,-0.2702,-0.2738,-0.2745,-0.275,-0.2752,-0.2727,-0.2731,-0.2693,-0.2693,-0.2693,0,0,-0.2602,-0.2625,-0.2632,-0.2674,-0.2688,-0.2727,-0.2706,-0.2732,-0.2756,-0.272,-0.2735,-0.2727,-0.2721,-0.2741,-0.2746,-0.2728,-0.2751,-0.2754,-0.2759,-0.2757,-0.2731,-0.2735,-0.2738,-0.2695,-0.2695,-0.2694,0,0,-0.2614,-0.2622,-0.2649,-0.268,-0.2718,-0.2734,-0.2744,-0.2772,-0.2773,-0.2797,-0.2778,-0.2778,-0.2786,-0.2785,-0.2785,-0.2833,-0.279,-0.2836,-0.2863,-0.284,-0.2843,-0.2844,-0.2824,-0.2824,-0.2835,-0.2835,-0.2835,0,-0.2601,-0.2646,-0.2661,-0.2706,-0.2733,-0.2741,-0.2784,-0.2799,-0.2822,-0.2823,-0.2806,-0.2813,-0.2808,-0.2826,-0.2847,-0.2846,-0.2824,-0.2831,-0.2846,-0.2848,-0.2848,-0.2827,-0.2826,-0.2838,-0.2837,-0.2837,-0.2837,0,-0.2643,-0.2682,-0.2702,-0.2759,-0.279,-0.2828,-0.2862,-0.2878,-0.2874,-0.288,-0.289,-0.2882,-0.2879,-0.2886,-0.2883,-0.2896,-0.2877,-0.2858,-0.2821,-0.2855,-0.2831,-0.2829,-0.2842,-0.2841,-0.284,-0.2839,0,0,-0.26,-0.2711,-0.2714,-0.2754,-0.2823,-0.285,-0.2896,-0.2934,-0.294,-0.295,-0.2954,-0.2971,-0.2946,-0.2947,-0.2936,-0.2923,-0.292,-0.2899,-0.2896,-0.2869,-0.2868,-0.2747,-0.2733,-0.2897,-0.2897,-0.2897,-0.2851,0,-0.2624,-0.2722,-0.2766,-0.2839,-0.2892,-0.2923,-0.2959,-0.2987,-0.2992,-0.2997,-0.2985,-0.2986,-0.2976,-0.2968,-0.2958,-0.2934,-0.2916,-0.2934,-0.2848,-0.2846,-0.2725,-0.2727,-0.2609,-0.2548,-0.2849,-0.2848,-0.2848,0,-0.2641,-0.2711,-0.2802,-0.2888,-0.2907,-0.2947,-0.2986,-0.3022,-0.3038,-0.3037,-0.3032,-0.3013,-0.3016,-0.2989,-0.2953,-0.2964,-0.2924,-0.2895,-0.2892,-0.2758,-0.2719,-0.2562,-0.2532,-0.2517,-0.2844,-0.2844,-0.2844,0,-0.2606,-0.2721,-0.2793,-0.2829,-0.2932,-0.2958,-0.2995,-0.3026,-0.3054,-0.3057,-0.3059,-0.3043,-0.3035,-0.299,-0.2941,-0.2946,-0.2881,-0.2874,-0.2725,-0.2717,-0.2588,-0.2567,-0.252,-0.2831,-0.2831,-0.2831,-0.2832,0,-0.2612,-0.2663,-0.2783,-0.2825,-0.2886,-0.2947,-0.2993,-0.302,-0.3057,-0.3028,-0.3072,-0.3029,-0.3032,-0.2992,-0.2943,-0.282,-0.2877,-0.2723,-0.269,-0.2602,-0.2584,-0.254,-0.2574,-0.283,-0.283,-0.283,-0.2831,0,-0.2566,-0.2649,-0.2741,-0.2854,-0.2884,-0.2923,-0.3018,-0.2996,-0.3073,-0.3037,-0.3037,-0.3047,-0.296,-0.2952,-0.2872,-0.2806,-0.2654,-0.2652,-0.255,-0.2504,-0.2322,-0.2362,-0.2281,-0.2216,-0.2472,-0.2468,-0.2465,0,-0.2552,-0.2603,-0.275,-0.2771,-0.2823,-0.2897,-0.2886,-0.2984,-0.2929,-0.2984,-0.2893,-0.2904,-0.2764,-0.2673,-0.2583,-0.2478,-0.2512,-0.2323,-0.2297,-0.2282,-0.2305,-0.2351,-0.2307,-0.2161,-0.2156,-0.2152,-0.2149,0,-0.2529,-0.2591,-0.2669,-0.2683,-0.2692,-0.2686,-0.2671,-0.265,-0.2661,-0.2621,-0.2485,-0.2433,-0.2444,-0.2283,-0.2247,-0.2169,-0.226,-0.2227,-0.2241,-0.2071,-0.2091,-0.2021,-0.2243,-0.2111,-0.2115,-0.2118,-0.212,-0.2121,-0.2494,-0.2515,-0.2556,-0.2536,-0.2508,-0.2304,-0.2213,-0.2134,-0.1979,-0.1785,-0.1959,-0.1786,-0.2047,-0.1952,-0.19,-0.1846,-0.1931,-0.1801,-0.1858,-0.1911,-0.182,-0.1949,-0.1758,-0.1759,-0.1761,-0.1762,-0.1763,0,-0.2378,-0.2361,-0.2355,-0.225,-0.2053,-0.2098,-0.19,-0.1725,-0.1388,-0.1266,-0.1143,-0.1226,-0.1275,-0.1504,-0.1603,-0.1526,-0.152,-0.1521,-0.1588,-0.1563,-0.1685,-0.1639,-0.1377,-0.1377,-0.1377,-0.1377,-0.1377,-0.1377,-0.2306,-0.2216,-0.2157,-0.1761,-0.1652,-0.13,-0.1116,-0.0904,-0.0746,-0.0418,-0.0333,-0.0394,-0.091,-0.1418,-0.1496,-0.1429,-0.1435,-0.1377,-0.1432,-0.1561,-0.1593,-0.1625,-0.1588,-0.132,-0.132,-0.1245,-0.1245,-0.1244]},{"header":{"parameterUnit":"m.s-1","parameterCategory":2,"la1":30.2991,"la2":30.254,"lo1":-89.0895,"lo2":-89.0444,"dy":0.0017,"dx":0.0017,"nx":28,"ny":28,"refTime":"2025-05-26T09:00:00:Z","depth":"0","parameterNumber":3,"parameterNumberName":"V-component_of_CURRENTS"},"data":[0,0,0,0,0,0,0,0,0,0,0,0,0,0,0,0,0,0,0,0,0,0,0,0,0,0,0,0,0,0,0,0,0,0,0,0,0,0,0,0,0,0,0,0,0,0,0,0,0,0,0,0,0,0,0,0,0,0,-0.02,-0.0199,0,-0.011,-0.0109,-0.0108,-0.0041,-0.0041,-0.0041,-0.004,0.0088,0.0091,0.0094,0,0,0,0,0,0,0,0,0,0,0,0,0,-0.0254,-0.0254,-0.02,-0.0199,-0.0198,-0.011,-0.0109,-0.0108,-0.0042,-0.0041,-0.0041,-0.004,0.0087,0.0091,0.0095,0,0,0,0,0,0,0,0,0,0,0,0,0,-0.0203,-0.0254,-0.02,-0.0156,-0.0151,-0.0111,-0.0109,-0.0107,-0.0042,-0.0041,-0.004,-0.004,0.0086,0.0091,0.0095,0.011,0,0,0.0109,0.0111,0,0,0,0,0,0,0,0,-0.0206,-0.0201,-0.0163,-0.0159,-0.0153,-0.0088,-0.0081,-0.0033,-0.0042,-0.0081,-0.004,-0.0039,0.0031,0.004,0.0058,0.0116,0.0122,0.0109,0.0112,0.0114,0.0115,0,0,0,0,0,0,0,-0.021,-0.0204,-0.0163,-0.0162,-0.0156,-0.012,-0.0112,-0.0071,-0.0028,-0.0078,-0.0073,-0.0066,0.0035,0.0053,0.0061,0.0124,0.0109,0.0113,0.0116,0.0118,0.0218,0.0218,0,0,0,0,0,0,-0.0228,-0.0208,-0.0165,-0.016,-0.018,-0.012,-0.0111,-0.0108,-0.0029,-0.0017,-0.0067,-0.0064,0.0045,0.0056,0.0066,0.0089,0.0114,0.0118,0.0121,0.0218,0.0218,0.0218,0,0,0,0,0,0,-0.0229,-0.0225,-0.0169,-0.0183,-0.0173,-0.012,-0.0117,-0.0107,-0.0088,-0.0021,-0.0008,-0.0059,0.0046,0.006,0.0102,0.0094,0.012,0.0124,0.0219,0.0218,0.0218,0.0134,0,0,0,0,0,0,-0.0231,-0.0226,-0.0233,-0.0184,-0.0173,-0.0156,-0.0117,-0.0106,-0.0086,-0.008,-0.001,0.0003,0.0048,0.0094,0.0106,0.0101,0.0128,0.0219,0.0218,0.0218,0.0137,0.0131,0.0126,0,0,0,0,0,-0.0234,-0.0252,-0.0234,-0.0228,-0.0183,-0.0157,-0.0148,-0.0106,-0.0086,-0.0085,-0.0033,0.0,0.0102,0.0098,0.0112,0.0108,0.0219,0.0219,0.0218,0.014,0.0133,0.0127,0,0,0,0,0,0,-0.0279,-0.0245,-0.0224,-0.0231,-0.0199,-0.0146,-0.0144,-0.0113,-0.0072,-0.0066,0.0,0.0016,0.005,0.0091,0.0085,0.0138,0.0166,0.0168,0.0101,0.0095,0.009,0.0074,0.0132,0,0,0,0,0,-0.0293,-0.0296,-0.0253,-0.0258,-0.0246,-0.0195,-0.018,-0.0152,-0.0108,-0.009,-0.0039,0.0015,0.006,0.0086,0.013,0.0159,0.0211,0.0166,0.0161,0.0156,0.0153,0.0218,0.0217,0.0218,0.0218,0.0218,0,0,-0.0312,-0.0294,-0.0295,-0.0267,-0.0239,-0.0235,-0.0184,-0.0169,-0.016,-0.0082,-0.0057,-0.0004,0.0063,0.0095,0.0114,0.0129,0.0185,0.0156,0.0151,0.0151,0.0217,0.0217,0.0217,0.0218,0.0218,0.0218,0,0,-0.0362,-0.0336,-0.0359,-0.0337,-0.0305,-0.0269,-0.027,-0.022,-0.0192,-0.0161,-0.0102,-0.0053,0.0011,0.0061,0.0095,0.0088,0.0152,0.0099,0.0062,0.0124,0.0125,0.0126,0.0198,0.0206,0.0099,0.0099,0.0099,0,-0.0389,-0.0408,-0.0361,-0.0374,-0.0362,-0.0292,-0.0309,-0.027,-0.0212,-0.0187,-0.0166,-0.0057,-0.0004,0.0048,0.0046,0.0075,0.0123,0.0077,0.0116,0.0118,0.0121,0.0194,0.0204,0.0095,0.0095,0.0095,0.0096,0,-0.0455,-0.0464,-0.0475,-0.0465,-0.0443,-0.0446,-0.0387,-0.036,-0.0315,-0.0267,-0.0208,-0.0129,-0.0063,-0.0039,0.0002,0.0045,0.0078,0.0098,0.0128,0.0115,0.0194,0.0206,0.0089,0.009,0.0091,0.0092,0,0,-0.0528,-0.0527,-0.0528,-0.0536,-0.0493,-0.048,-0.046,-0.0415,-0.0389,-0.0325,-0.0288,-0.0207,-0.0153,-0.0111,-0.0049,0.0008,0.0069,0.0051,0.0056,0.0114,0.0215,0.0319,0.0342,0.0091,0.0093,0.0094,0.0266,0,-0.0595,-0.0653,-0.0618,-0.0645,-0.0666,-0.0586,-0.0566,-0.0507,-0.0441,-0.0383,-0.0289,-0.023,-0.0183,-0.0147,-0.0087,0.0036,0.0095,0.0021,0.0227,0.0233,0.0319,0.0358,0.0403,0.0566,0.0278,0.028,0.0281,0,-0.0673,-0.0698,-0.0758,-0.0734,-0.073,-0.0726,-0.0663,-0.0632,-0.0526,-0.0471,-0.0392,-0.0307,-0.0208,-0.0172,0.0019,-0.0031,0.0077,0.017,0.0179,0.0313,0.0359,0.0533,0.06,0.0735,0.03,0.0299,0.0297,0,-0.0764,-0.0784,-0.0837,-0.0834,-0.0802,-0.0796,-0.0762,-0.0669,-0.0606,-0.0524,-0.0456,-0.0348,-0.0251,-0.0131,0.0074,0.0042,0.03,0.0282,0.0478,0.0487,0.0587,0.0603,0.0803,0.0407,0.0406,0.0406,0.0405,0,-0.0857,-0.0887,-0.0886,-0.0916,-0.0936,-0.0879,-0.085,-0.0803,-0.0685,-0.0542,-0.0508,-0.0357,-0.0234,-0.0055,0.0076,0.0343,0.0309,0.049,0.0544,0.0561,0.0572,0.0744,0.0777,0.0412,0.0411,0.0409,0.0408,0,-0.0952,-0.0959,-0.1007,-0.0999,-0.099,-0.1003,-0.0894,-0.0801,-0.0747,-0.0558,-0.0521,-0.0345,-0.011,0.0033,0.0277,0.0392,0.0709,0.0693,0.0713,0.0767,0.1045,0.107,0.1338,0.1445,0.0916,0.092,0.0923,0,-0.1009,-0.1058,-0.1078,-0.1052,-0.1047,-0.1028,-0.093,-0.0849,-0.0695,-0.0472,-0.0324,-0.0135,0.012,0.0443,0.0617,0.0837,0.0916,0.1024,0.0966,0.1095,0.1162,0.1173,0.1242,0.1067,0.1071,0.1074,0.1076,0,-0.1097,-0.1107,-0.1123,-0.1075,-0.1003,-0.0916,-0.0775,-0.0691,-0.0472,-0.0305,0.0049,0.0227,0.0509,0.0769,0.0946,0.1079,0.1138,0.1101,0.123,0.1305,0.1335,0.1452,0.0919,0.1106,0.1103,0.1101,0.1099,0.1098,-0.1118,-0.1121,-0.1088,-0.1027,-0.0932,-0.0745,-0.0642,-0.0428,-0.0201,0.0106,0.0355,0.0661,0.0934,0.1176,0.1312,0.1492,0.1427,0.1564,0.1588,0.159,0.1688,0.1234,0.1482,0.1481,0.148,0.148,0.1479,0,-0.103,-0.1007,-0.0984,-0.0865,-0.07,-0.0675,-0.0435,-0.028,0.0023,0.0283,0.063,0.1133,0.1388,0.1542,0.176,0.1942,0.1952,0.2026,0.2026,0.2077,0.1682,0.1683,0.1992,0.1992,0.1992,0.1992,0.1992,0.1991,-0.0962,-0.0881,-0.0856,-0.062,-0.0524,-0.0269,-0.0129,0.0058,0.0237,0.063,0.0922,0.1193,0.1525,0.201,0.228,0.2312,0.2464,0.2464,0.2552,0.2235,0.2191,0.215,0.216,0.2565,0.2566,0.2937,0.294,0.2943]}],[{"header":{"parameterUnit":"m.s-1","parameterCategory":2,"la1":30.2991,"la2":30.254,"lo1":-89.0895,"lo2":-89.0444,"dy":0.0017,"dx":0.0017,"nx":28,"ny":28,"refTime":"2025-05-26T09:00:00:Z","depth":"2","parameterNumber":2,"parameterNumberName":"U-component_of_CURRENTS"},"data":[0,0,0,0,0,0,0,0,0,0,0,0,0,0,0,0,0,0,0,0,0,0,0,0,0,0,0,0,0,0,0,0,0,0,0,0,0,0,0,0,0,0,0,0,0,0,0,0,0,0,0,0,0,0,0,0,0,0,-0.2505,-0.2506,0,-0.2537,-0.2537,-0.2537,-0.2509,-0.2508,-0.2507,-0.2507,-0.2479,-0.2479,-0.2479,0,0,0,0,0,0,0,0,0,0,0,0,0,-0.2426,-0.2427,-0.2505,-0.2506,-0.2506,-0.2537,-0.2537,-0.2537,-0.2509,-0.2508,-0.2507,-0.2506,-0.2479,-0.2479,-0.2479,0,0,0,0,0,0,0,0,0,0,0,0,0,-0.2457,-0.2428,-0.2505,-0.2498,-0.2498,-0.2537,-0.2537,-0.2537,-0.251,-0.2508,-0.2507,-0.2506,-0.2479,-0.2479,-0.2479,-0.2507,0,0,-0.248,-0.248,0,0,0,0,0,0,0,0,-0.2455,-0.2459,-0.2498,-0.2499,-0.2499,-0.252,-0.2499,-0.2525,-0.251,-0.2502,-0.2507,-0.2505,-0.249,-0.2489,-0.2495,-0.2506,-0.2505,-0.248,-0.248,-0.248,-0.248,0,0,0,0,0,0,0,-0.2453,-0.2458,-0.2515,-0.2499,-0.2499,-0.2496,-0.2498,-0.2504,-0.25,-0.2503,-0.2502,-0.251,-0.2489,-0.2495,-0.2494,-0.2504,-0.248,-0.248,-0.248,-0.248,-0.2539,-0.254,0,0,0,0,0,0,-0.2456,-0.2456,-0.2514,-0.2516,-0.2476,-0.2498,-0.2501,-0.2512,-0.2501,-0.25,-0.2511,-0.2509,-0.2495,-0.2494,-0.2493,-0.2523,-0.248,-0.248,-0.248,-0.2537,-0.2539,-0.2541,0,0,0,0,0,0,-0.2454,-0.2461,-0.2513,-0.2489,-0.2495,-0.2501,-0.2514,-0.2514,-0.2516,-0.2509,-0.2505,-0.2513,-0.2494,-0.2493,-0.2504,-0.2521,-0.248,-0.248,-0.2536,-0.2538,-0.254,-0.2585,0,0,0,0,0,0,-0.2452,-0.246,-0.2466,-0.2489,-0.2497,-0.2541,-0.2516,-0.2515,-0.2525,-0.2522,-0.251,-0.2506,-0.2493,-0.2504,-0.2504,-0.2521,-0.248,-0.2534,-0.2537,-0.2539,-0.2581,-0.2588,-0.2594,0,0,0,0,0,-0.2449,-0.2467,-0.2466,-0.2473,-0.2506,-0.2543,-0.2546,-0.2544,-0.2526,-0.2538,-0.2529,-0.2506,-0.2522,-0.2506,-0.2506,-0.2522,-0.2532,-0.2536,-0.2539,-0.2578,-0.2587,-0.2594,0,0,0,0,0,0,-0.2432,-0.2466,-0.2466,-0.2491,-0.2517,-0.2539,-0.2548,-0.2548,-0.2552,-0.2544,-0.2526,-0.2523,-0.2541,-0.2531,-0.2514,-0.255,-0.2523,-0.2527,-0.2554,-0.2561,-0.2567,-0.2564,-0.248,0,0,0,0,0,-0.2434,-0.2453,-0.2487,-0.2504,-0.2519,-0.2534,-0.2546,-0.255,-0.256,-0.256,-0.2553,-0.255,-0.2558,-0.2557,-0.2563,-0.2583,-0.256,-0.2595,-0.2601,-0.2606,-0.2605,-0.2589,-0.2593,-0.2551,-0.2551,-0.2551,0,0,-0.2429,-0.2452,-0.246,-0.2502,-0.2517,-0.2552,-0.2536,-0.2563,-0.2586,-0.2557,-0.2577,-0.2573,-0.257,-0.2592,-0.2598,-0.2582,-0.2609,-0.261,-0.2615,-0.2611,-0.2593,-0.2597,-0.26,-0.2554,-0.2553,-0.2553,0,0,-0.244,-0.2453,-0.2478,-0.2508,-0.2545,-0.2562,-0.2572,-0.2601,-0.2605,-0.2633,-0.2617,-0.2623,-0.2636,-0.2636,-0.2637,-0.2684,-0.2645,-0.2688,-0.2712,-0.2697,-0.27,-0.2702,-0.2681,-0.2681,-0.2688,-0.2688,-0.2688,0,-0.2432,-0.2471,-0.249,-0.253,-0.2555,-0.2568,-0.2606,-0.2624,-0.2651,-0.2656,-0.2644,-0.266,-0.2657,-0.2677,-0.2695,-0.2696,-0.2677,-0.2681,-0.2703,-0.2705,-0.2706,-0.2684,-0.2683,-0.269,-0.269,-0.269,-0.2689,0,-0.2468,-0.2502,-0.2521,-0.2573,-0.2604,-0.2638,-0.2674,-0.2694,-0.2698,-0.2708,-0.2726,-0.2723,-0.2726,-0.2734,-0.273,-0.2745,-0.2726,-0.2713,-0.2678,-0.2712,-0.2688,-0.2686,-0.2694,-0.2693,-0.2692,-0.2692,0,0,-0.2433,-0.2529,-0.2532,-0.2566,-0.263,-0.2658,-0.2702,-0.2742,-0.2756,-0.2772,-0.2786,-0.2804,-0.2788,-0.2789,-0.2781,-0.2772,-0.2772,-0.275,-0.2748,-0.272,-0.2732,-0.2635,-0.2623,-0.2758,-0.2758,-0.2758,-0.2711,0,-0.245,-0.253,-0.2573,-0.2637,-0.268,-0.2716,-0.2754,-0.2788,-0.2803,-0.282,-0.2815,-0.2826,-0.2814,-0.2812,-0.2805,-0.2784,-0.2769,-0.2785,-0.2711,-0.2709,-0.261,-0.2618,-0.2418,-0.2353,-0.2709,-0.2709,-0.2709,0,-0.2462,-0.2519,-0.2591,-0.2674,-0.2694,-0.2732,-0.2781,-0.282,-0.285,-0.2859,-0.2864,-0.2857,-0.286,-0.2837,-0.2806,-0.2815,-0.2778,-0.2753,-0.2751,-0.264,-0.2608,-0.2377,-0.2335,-0.2705,-0.2706,-0.2706,-0.2706,0,-0.2421,-0.2522,-0.2577,-0.2609,-0.2707,-0.2734,-0.2776,-0.2821,-0.2846,-0.2875,-0.2883,-0.2883,-0.2873,-0.2842,-0.2795,-0.2801,-0.2742,-0.2741,-0.2616,-0.2609,-0.2413,-0.2388,-0.2705,-0.2705,-0.2705,-0.2705,-0.2705,0,-0.2416,-0.2458,-0.2563,-0.2594,-0.2642,-0.2718,-0.2758,-0.2796,-0.2847,-0.2859,-0.2891,-0.288,-0.2872,-0.2837,-0.2798,-0.2692,-0.274,-0.2614,-0.2587,-0.2424,-0.2402,-0.2689,-0.2688,-0.2704,-0.2704,-0.2704,-0.2705,0,-0.2357,-0.2433,-0.2496,-0.26,-0.2626,-0.2655,-0.2743,-0.2754,-0.2828,-0.2844,-0.2852,-0.2875,-0.2817,-0.2791,-0.273,-0.2675,-0.2601,-0.2549,-0.2358,-0.2308,-0.2482,-0.2485,-0.2412,-0.2408,-0.2405,-0.2402,-0.24,0,-0.2336,-0.2367,-0.2471,-0.2475,-0.2517,-0.2578,-0.2596,-0.2713,-0.2728,-0.2816,-0.2796,-0.2786,-0.2712,-0.2602,-0.2495,-0.2389,-0.249,-0.2169,-0.2144,-0.2469,-0.2451,-0.2458,-0.2464,-0.1907,-0.1901,-0.1896,-0.1892,0,-0.2264,-0.23,-0.2326,-0.2354,-0.2379,-0.2429,-0.2478,-0.2507,-0.2621,-0.2647,-0.2646,-0.261,-0.2505,-0.2283,-0.2162,-0.2086,-0.2175,-0.2062,-0.2432,-0.2017,-0.199,-0.1974,-0.1997,-0.1847,-0.1852,-0.1855,-0.1857,-0.1859,-0.2161,-0.2149,-0.2163,-0.2171,-0.2204,-0.2222,-0.22,-0.2271,-0.2293,-0.2289,-0.2404,-0.2278,-0.2229,-0.1905,-0.1794,-0.1707,-0.1858,-0.1786,-0.1802,-0.1824,-0.1778,-0.1747,-0.155,-0.1553,-0.1555,-0.1557,-0.1559,0,-0.1989,-0.1972,-0.1967,-0.1954,-0.1907,-0.2014,-0.2048,-0.1993,-0.1949,-0.1995,-0.198,-0.1759,-0.1592,-0.155,-0.1327,-0.1291,-0.1295,-0.1254,-0.1257,-0.1301,-0.1341,-0.1272,-0.0909,-0.0907,-0.0906,-0.0904,0,0,-0.1882,-0.1785,-0.1782,-0.1636,-0.1635,-0.1538,-0.1527,-0.1504,-0.1497,-0.1427,-0.1374,-0.1489,-0.1484,-0.1197,-0.1128,-0.0974,-0.113,-0.0925,-0.1441,-0.1487,-0.1524,-0.1636,-0.1578,0,0,0,0,0]},{"header":{"parameterUnit":"m.s-1","parameterCategory":2,"la1":30.2991,"la2":30.254,"lo1":-89.0895,"lo2":-89.0444,"dy":0.0017,"dx":0.0017,"nx":28,"ny":28,"refTime":"2025-05-26T09:00:00:Z","depth":"2","parameterNumber":3,"parameterNumberName":"V-component_of_CURRENTS"},"data":[0,0,0,0,0,0,0,0,0,0,0,0,0,0,0,0,0,0,0,0,0,0,0,0,0,0,0,0,0,0,0,0,0,0,0,0,0,0,0,0,0,0,0,0,0,0,0,0,0,0,0,0,0,0,0,0,0,0,-0.025,-0.0249,0,-0.0166,-0.0165,-0.0164,-0.0104,-0.0103,-0.0103,-0.0103,0.0017,0.002,0.0023,0,0,0,0,0,0,0,0,0,0,0,0,0,-0.0306,-0.0305,-0.025,-0.0249,-0.0248,-0.0166,-0.0165,-0.0164,-0.0104,-0.0103,-0.0103,-0.0103,0.0016,0.002,0.0023,0,0,0,0,0,0,0,0,0,0,0,0,0,-0.0256,-0.0305,-0.025,-0.021,-0.0205,-0.0167,-0.0165,-0.0163,-0.0104,-0.0103,-0.0103,-0.0102,0.0015,0.0019,0.0023,0.004,0,0,0.0037,0.0039,0,0,0,0,0,0,0,0,-0.0259,-0.0254,-0.0217,-0.0212,-0.0207,-0.0146,-0.0141,-0.0094,-0.0104,-0.0141,-0.0103,-0.0102,-0.0036,-0.0027,-0.0011,0.0045,0.0051,0.0037,0.004,0.0042,0.0043,0,0,0,0,0,0,0,-0.0263,-0.0257,-0.0215,-0.0216,-0.021,-0.0178,-0.0171,-0.0131,-0.009,-0.0137,-0.0133,-0.0127,-0.0033,-0.0015,-0.0007,0.0052,0.0037,0.0041,0.0043,0.0045,0.0141,0.0141,0,0,0,0,0,0,-0.028,-0.0261,-0.0218,-0.0213,-0.0234,-0.0178,-0.0169,-0.0165,-0.0091,-0.008,-0.0127,-0.0124,-0.0023,-0.0012,-0.0003,0.0023,0.0041,0.0046,0.0048,0.0141,0.0141,0.0141,0,0,0,0,0,0,-0.0281,-0.0277,-0.0221,-0.0236,-0.0227,-0.0178,-0.0173,-0.0164,-0.0146,-0.0084,-0.0072,-0.012,-0.0022,-0.0009,0.0031,0.0028,0.0047,0.0051,0.0141,0.0141,0.0141,0.0074,0,0,0,0,0,0,-0.0283,-0.0278,-0.0283,-0.0237,-0.0227,-0.0207,-0.0173,-0.0163,-0.0144,-0.0139,-0.0074,-0.0062,-0.002,0.0024,0.0035,0.0035,0.0055,0.0141,0.0141,0.0141,0.0076,0.0072,0.0068,0,0,0,0,0,-0.0286,-0.0298,-0.0283,-0.0278,-0.0234,-0.0207,-0.0199,-0.0161,-0.0144,-0.0142,-0.0095,-0.0064,0.0031,0.0027,0.004,0.0041,0.0141,0.0141,0.0141,0.0078,0.0073,0.0068,0,0,0,0,0,0,-0.0325,-0.0292,-0.0275,-0.0277,-0.0248,-0.0198,-0.0194,-0.0168,-0.0129,-0.0124,-0.0063,-0.0048,-0.0016,0.0022,0.0015,0.0069,0.0091,0.0093,0.0039,0.0034,0.003,0.0015,0.0058,0,0,0,0,0,-0.0337,-0.0337,-0.0298,-0.0299,-0.0288,-0.0242,-0.0227,-0.0202,-0.0162,-0.0144,-0.0098,-0.0048,-0.0006,0.002,0.006,0.009,0.0134,0.0099,0.0095,0.0091,0.0088,0.0153,0.0154,0.0141,0.0141,0.0141,0,0,-0.0353,-0.0335,-0.0335,-0.0308,-0.0282,-0.0274,-0.0232,-0.0216,-0.0204,-0.0137,-0.0109,-0.0064,-0.0003,0.003,0.0048,0.0062,0.0118,0.0091,0.0087,0.0087,0.0153,0.0154,0.0156,0.0141,0.0141,0.0141,0,0,-0.0392,-0.037,-0.0385,-0.0364,-0.0334,-0.0302,-0.0302,-0.0256,-0.023,-0.0199,-0.0148,-0.0104,-0.0043,0.0005,0.0036,0.0034,0.0089,0.0043,0.0016,0.0078,0.008,0.0082,0.0135,0.0143,0.0046,0.0046,0.0046,0,-0.0414,-0.0423,-0.0385,-0.0391,-0.0378,-0.0321,-0.0329,-0.0295,-0.0241,-0.0217,-0.0202,-0.0102,-0.0053,0.0001,-0.0001,0.0025,0.0064,0.0028,0.0072,0.0075,0.0079,0.0133,0.0142,0.0043,0.0043,0.0043,0.0044,0,-0.0461,-0.0464,-0.0471,-0.0457,-0.0437,-0.0435,-0.0384,-0.0359,-0.0321,-0.0278,-0.0223,-0.0154,-0.0092,-0.0071,-0.0037,0.001,0.0032,0.0054,0.0082,0.0076,0.0134,0.0144,0.0038,0.0039,0.004,0.0041,0,0,-0.052,-0.0509,-0.0511,-0.0514,-0.0472,-0.0462,-0.0437,-0.0394,-0.0371,-0.0314,-0.0278,-0.0204,-0.0159,-0.0121,-0.0066,-0.0013,0.0042,0.0022,0.0027,0.0069,0.0174,0.0202,0.0217,0.0071,0.0073,0.0074,0.0204,0,-0.0569,-0.0606,-0.0574,-0.0591,-0.0603,-0.0536,-0.0515,-0.0464,-0.0407,-0.0356,-0.0272,-0.0221,-0.0178,-0.015,-0.0089,0.0012,0.0067,0.0004,0.018,0.0185,0.0206,0.0229,0.019,0.0303,0.0215,0.0216,0.0218,0,-0.0626,-0.0642,-0.0682,-0.0659,-0.0654,-0.0649,-0.0595,-0.0566,-0.0472,-0.0426,-0.0352,-0.0281,-0.0191,-0.016,0.0009,-0.0034,0.0059,0.0136,0.0143,0.02,0.0233,0.0298,0.0326,0.0236,0.0234,0.0233,0.0232,0,-0.0703,-0.0709,-0.0747,-0.0742,-0.0711,-0.0705,-0.0676,-0.0595,-0.0562,-0.047,-0.0431,-0.0314,-0.0246,-0.0122,0.0039,0.0026,0.0228,0.0235,0.035,0.0353,0.037,0.0372,0.0351,0.0351,0.0351,0.035,0.035,0,-0.0775,-0.0797,-0.0789,-0.0812,-0.0835,-0.0777,-0.0771,-0.072,-0.0637,-0.06,-0.0478,-0.0416,-0.0233,-0.0093,0.0037,0.0233,0.0234,0.0353,0.0393,0.0345,0.0343,0.0324,0.0319,0.0355,0.0354,0.0353,0.0352,0,-0.086,-0.0856,-0.0897,-0.0886,-0.0882,-0.09,-0.0848,-0.0836,-0.074,-0.0688,-0.0663,-0.0477,-0.0289,-0.0097,0.0128,0.024,0.0413,0.048,0.0407,0.0437,0.0493,0.0483,0.0617,0.0619,0.0621,0.0622,0.0624,0,-0.0911,-0.0949,-0.097,-0.0999,-0.1001,-0.1005,-0.1007,-0.0915,-0.0894,-0.0726,-0.0713,-0.0502,-0.0358,-0.0001,0.0235,0.0483,0.0482,0.0585,0.0553,0.0497,0.0523,0.051,0.0498,0.055,0.0551,0.0551,0.0552,0,-0.1002,-0.101,-0.1042,-0.1111,-0.1137,-0.1147,-0.1137,-0.1132,-0.1015,-0.0944,-0.0806,-0.0666,-0.0294,-0.0008,0.0337,0.0472,0.0539,0.0603,0.0589,0.0482,0.0443,0.0466,0.0455,0.0556,0.0556,0.0555,0.0555,0.0555,-0.106,-0.111,-0.1155,-0.1212,-0.1248,-0.1274,-0.1274,-0.1242,-0.1195,-0.1045,-0.0917,-0.0657,-0.0349,0.0151,0.0383,0.062,0.0614,0.0659,0.0654,0.0649,0.0611,0.0578,0.0708,0.0709,0.0709,0.0709,0.071,0,-0.1124,-0.1176,-0.1245,-0.1306,-0.1352,-0.1343,-0.1344,-0.13,-0.125,-0.1078,-0.0926,-0.058,-0.0236,0.0113,0.0486,0.0683,0.0659,0.0712,0.0638,0.0632,0.0628,0.0585,0.0678,0.0678,0.0678,0.0679,0,0,-0.1161,-0.1242,-0.1277,-0.1368,-0.1409,-0.1429,-0.1424,-0.1345,-0.1203,-0.1019,-0.0813,-0.0586,-0.0175,0.0066,0.032,0.0525,0.0526,0.054,0.0544,0.042,0.0413,0.0577,0.0503,0,0,0,0,0]}],[{"header":{"parameterUnit":"m.s-1","parameterCategory":2,"la1":30.2991,"la2":30.254,"lo1":-89.0895,"lo2":-89.0444,"dy":0.0017,"dx":0.0017,"nx":28,"ny":28,"refTime":"2025-05-26T09:00:00:Z","depth":"4","parameterNumber":2,"parameterNumberName":"U-component_of_CURRENTS"},"data":[0,0,0,0,0,0,0,0,0,0,0,0,0,0,0,0,0,0,0,0,0,0,0,0,0,0,0,0,0,0,0,0,0,0,0,0,0,0,0,0,0,0,0,0,0,0,0,0,0,0,0,0,0,0,0,0,0,0,-0.1831,-0.1832,0,-0.1903,-0.1903,-0.1904,-0.194,-0.194,-0.194,-0.194,-0.1993,-0.1994,-0.1995,0,0,0,0,0,0,0,0,0,0,0,0,0,-0.1721,-0.1723,-0.1831,-0.1832,-0.1833,-0.1902,-0.1903,-0.1904,-0.1939,-0.194,-0.194,-0.194,-0.1992,-0.1994,-0.1995,0,0,0,0,0,0,0,0,0,0,0,0,0,-0.1776,-0.1723,-0.183,-0.1861,-0.1864,-0.1902,-0.1903,-0.1904,-0.1939,-0.194,-0.194,-0.194,-0.1992,-0.1993,-0.1995,-0.2,0,0,-0.2001,-0.2002,0,0,0,0,0,0,0,0,-0.1773,-0.178,-0.1855,-0.1859,-0.1863,-0.1914,-0.1884,-0.1936,-0.1939,-0.1908,-0.194,-0.1941,-0.1966,-0.197,-0.198,-0.2003,-0.2005,-0.2001,-0.2002,-0.2003,-0.2003,0,0,0,0,0,0,0,-0.1769,-0.1777,-0.1857,-0.1856,-0.1861,-0.187,-0.1877,-0.1894,-0.1932,-0.1911,-0.1915,-0.1926,-0.1968,-0.1978,-0.1981,-0.2006,-0.2001,-0.2002,-0.2004,-0.2004,-0.2113,-0.2114,0,0,0,0,0,0,-0.1765,-0.1773,-0.1855,-0.1859,-0.182,-0.1871,-0.188,-0.1896,-0.1933,-0.194,-0.1926,-0.1927,-0.1975,-0.1979,-0.1983,-0.206,-0.2003,-0.2004,-0.2006,-0.2111,-0.2113,-0.2115,0,0,0,0,0,0,-0.1762,-0.1771,-0.1852,-0.1819,-0.183,-0.1873,-0.189,-0.1897,-0.1936,-0.1944,-0.195,-0.1961,-0.1975,-0.1981,-0.2028,-0.206,-0.2005,-0.2007,-0.2109,-0.2112,-0.2114,-0.217,0,0,0,0,0,0,-0.1759,-0.177,-0.1794,-0.1819,-0.1832,-0.1896,-0.189,-0.1898,-0.1942,-0.1946,-0.1976,-0.198,-0.1976,-0.2026,-0.203,-0.2061,-0.2008,-0.2106,-0.211,-0.2113,-0.2166,-0.2174,-0.2181,0,0,0,0,0,-0.1755,-0.1782,-0.1795,-0.1805,-0.1859,-0.1897,-0.1906,-0.1934,-0.1944,-0.1969,-0.1993,-0.198,-0.205,-0.2029,-0.2034,-0.2066,-0.2105,-0.2109,-0.2113,-0.2162,-0.2172,-0.2181,0,0,0,0,0,0,-0.1748,-0.1789,-0.1803,-0.1843,-0.1878,-0.1905,-0.1936,-0.1952,-0.1991,-0.2003,-0.2005,-0.2011,-0.2063,-0.2061,-0.2037,-0.2108,-0.2075,-0.208,-0.2111,-0.2121,-0.2128,-0.2117,-0.201,0,0,0,0,0,-0.1757,-0.179,-0.1826,-0.1861,-0.1882,-0.1914,-0.1939,-0.1961,-0.1991,-0.201,-0.2032,-0.2056,-0.2079,-0.2098,-0.2117,-0.2158,-0.2134,-0.2182,-0.219,-0.2196,-0.2191,-0.2188,-0.2194,-0.2128,-0.2128,-0.2128,0,0,-0.1765,-0.1793,-0.1813,-0.1863,-0.1892,-0.193,-0.1931,-0.198,-0.2016,-0.2009,-0.2073,-0.2088,-0.2097,-0.2143,-0.2165,-0.2148,-0.2204,-0.2201,-0.2207,-0.2198,-0.2193,-0.2199,-0.2204,-0.2131,-0.2131,-0.213,0,0,-0.1787,-0.1823,-0.1855,-0.1889,-0.1943,-0.1964,-0.1985,-0.2032,-0.2061,-0.2118,-0.2121,-0.2155,-0.22,-0.2207,-0.2215,-0.2278,-0.2246,-0.2293,-0.2323,-0.2321,-0.2326,-0.233,-0.2307,-0.2308,-0.2297,-0.2297,-0.2297,0,-0.1797,-0.1839,-0.1872,-0.1911,-0.1944,-0.1982,-0.2022,-0.2058,-0.2117,-0.214,-0.215,-0.2211,-0.2225,-0.226,-0.2286,-0.2294,-0.2281,-0.2285,-0.2329,-0.2332,-0.2335,-0.2311,-0.2312,-0.23,-0.23,-0.2299,-0.2299,0,-0.1831,-0.1879,-0.1903,-0.1963,-0.2003,-0.2048,-0.2096,-0.2143,-0.2182,-0.2208,-0.2266,-0.2285,-0.2314,-0.2332,-0.2331,-0.2366,-0.2345,-0.2338,-0.2299,-0.2345,-0.2317,-0.2317,-0.2305,-0.2303,-0.2302,-0.2302,0,0,-0.181,-0.1908,-0.1919,-0.1958,-0.2036,-0.2069,-0.2135,-0.2192,-0.223,-0.2287,-0.2326,-0.2373,-0.238,-0.2389,-0.2394,-0.2398,-0.2414,-0.2385,-0.2383,-0.2351,-0.2397,-0.2234,-0.2217,-0.2416,-0.2417,-0.2417,-0.2368,0,-0.1827,-0.1903,-0.1951,-0.2028,-0.207,-0.2128,-0.2182,-0.2241,-0.2288,-0.2338,-0.2362,-0.2404,-0.2403,-0.2423,-0.243,-0.2422,-0.2417,-0.2427,-0.2367,-0.2365,-0.2204,-0.2212,-0.2418,-0.2368,-0.2367,-0.2367,-0.2367,0,-0.1833,-0.1887,-0.1965,-0.2059,-0.2084,-0.214,-0.2222,-0.2276,-0.2346,-0.2381,-0.242,-0.2438,-0.2466,-0.2456,-0.2449,-0.2458,-0.2433,-0.2416,-0.2414,-0.2237,-0.2199,-0.2314,-0.2366,-0.2366,-0.2366,-0.2366,-0.2366,0,-0.1783,-0.1891,-0.1954,-0.1989,-0.2101,-0.2152,-0.2213,-0.2291,-0.2332,-0.2408,-0.2434,-0.2469,-0.2484,-0.2473,-0.244,-0.2455,-0.2408,-0.2419,-0.2241,-0.2229,-0.2368,-0.2364,-0.2398,-0.2399,-0.2399,-0.2399,-0.2399,0,-0.176,-0.1816,-0.1945,-0.1978,-0.205,-0.214,-0.2213,-0.2274,-0.2354,-0.2372,-0.2451,-0.2447,-0.2491,-0.2467,-0.2442,-0.2319,-0.2404,-0.223,-0.22,-0.2393,-0.2393,-0.2366,-0.2363,-0.2397,-0.2397,-0.2398,-0.2398,0,-0.169,-0.1778,-0.1856,-0.1988,-0.203,-0.2082,-0.2206,-0.2232,-0.2336,-0.236,-0.2383,-0.2439,-0.2393,-0.2397,-0.2362,-0.229,-0.2213,-0.2148,-0.2336,-0.232,-0.2041,-0.2042,-0.195,-0.1943,-0.1938,-0.1933,-0.193,0,-0.1658,-0.1694,-0.184,-0.1865,-0.193,-0.2024,-0.206,-0.2199,-0.2213,-0.2311,-0.2285,-0.2303,-0.2306,-0.2118,-0.2157,-0.2076,-0.2053,-0.2012,-0.2042,-0.2012,-0.1993,-0.2003,-0.2011,-0.1921,-0.192,-0.1918,-0.1917,0,-0.1577,-0.1645,-0.1692,-0.1753,-0.1809,-0.1867,-0.1938,-0.1947,-0.2063,-0.2187,-0.2115,-0.2084,-0.2024,-0.1985,-0.1926,-0.1877,-0.2044,-0.1956,-0.1968,-0.1996,-0.1977,-0.1965,-0.198,-0.1898,-0.1901,-0.1903,-0.1904,0,-0.1496,-0.1503,-0.1558,-0.1591,-0.1652,-0.1654,-0.1742,-0.1745,-0.1796,-0.192,-0.1882,-0.1907,-0.1977,-0.1877,-0.1824,-0.1759,-0.1745,-0.1705,-0.173,-0.1751,-0.1709,-0.1657,-0.1437,0,0,0,0,0,-0.1396,-0.1362,-0.1379,-0.1397,-0.1451,-0.1488,-0.1603,-0.169,-0.1826,-0.1715,-0.1799,-0.173,-0.1661,-0.1688,-0.1575,-0.1736,-0.1752,-0.1601,-0.1721,-0.1796,-0.1817,-0.1786,0,0,0,0,0,0,-0.1312,-0.1314,-0.1312,-0.1214,-0.1187,-0.1231,-0.1302,-0.1411,-0.1375,-0.1521,-0.1486,-0.1604,-0.1556,-0.1663,-0.1521,-0.1529,-0.1568,-0.164,-0.1635,-0.1784,-0.1803,-0.182,-0.1796,0,0,0,0,0]},{"header":{"parameterUnit":"m.s-1","parameterCategory":2,"la1":30.2991,"la2":30.254,"lo1":-89.0895,"lo2":-89.0444,"dy":0.0017,"dx":0.0017,"nx":28,"ny":28,"refTime":"2025-05-26T09:00:00:Z","depth":"4","parameterNumber":3,"parameterNumberName":"V-component_of_CURRENTS"},"data":[0,0,0,0,0,0,0,0,0,0,0,0,0,0,0,0,0,0,0,0,0,0,0,0,0,0,0,0,0,0,0,0,0,0,0,0,0,0,0,0,0,0,0,0,0,0,0,0,0,0,0,0,0,0,0,0,0,0,-0.018,-0.018,0,-0.0121,-0.012,-0.0119,-0.0077,-0.0077,-0.0077,-0.0077,0.002,0.0022,0.0024,0,0,0,0,0,0,0,0,0,0,0,0,0,-0.0217,-0.0217,-0.018,-0.018,-0.0179,-0.0121,-0.012,-0.0119,-0.0077,-0.0077,-0.0077,-0.0077,0.0019,0.0022,0.0024,0,0,0,0,0,0,0,0,0,0,0,0,0,-0.0182,-0.0217,-0.018,-0.0152,-0.0149,-0.0121,-0.012,-0.0119,-0.0077,-0.0077,-0.0077,-0.0077,0.0018,0.0021,0.0025,0.0041,0,0,0.0036,0.0037,0,0,0,0,0,0,0,0,-0.0184,-0.0181,-0.0157,-0.0154,-0.0151,-0.0108,-0.0098,-0.0064,-0.0078,-0.0103,-0.0077,-0.0076,-0.0021,-0.0014,-0.0002,0.0045,0.005,0.0036,0.0038,0.004,0.0041,0,0,0,0,0,0,0,-0.0187,-0.0183,-0.0155,-0.0156,-0.0153,-0.0129,-0.0124,-0.0091,-0.0062,-0.0101,-0.0098,-0.0094,-0.0019,-0.0005,0.0001,0.0051,0.0036,0.0039,0.0041,0.0043,0.0123,0.0123,0,0,0,0,0,0,-0.02,-0.0186,-0.0157,-0.0154,-0.0169,-0.0129,-0.0123,-0.0121,-0.0063,-0.0055,-0.0094,-0.0092,-0.0012,-0.0003,0.0004,0.0029,0.004,0.0043,0.0045,0.0123,0.0123,0.0123,0,0,0,0,0,0,-0.0201,-0.0198,-0.016,-0.0169,-0.0163,-0.0129,-0.0126,-0.012,-0.0108,-0.0059,-0.005,-0.0091,-0.0011,-0.0001,0.0031,0.0033,0.0045,0.0048,0.0123,0.0123,0.0123,0.0076,0,0,0,0,0,0,-0.0202,-0.0199,-0.0204,-0.017,-0.0163,-0.015,-0.0126,-0.0119,-0.0107,-0.0104,-0.0053,-0.0043,-0.001,0.0025,0.0034,0.0038,0.0051,0.0123,0.0123,0.0123,0.0078,0.0075,0.0072,0,0,0,0,0,-0.0204,-0.0212,-0.0204,-0.0201,-0.017,-0.015,-0.0144,-0.0118,-0.0108,-0.0106,-0.007,-0.0045,0.0032,0.0028,0.0039,0.0043,0.0123,0.0123,0.0123,0.0079,0.0075,0.0072,0,0,0,0,0,0,-0.0231,-0.0208,-0.0199,-0.02,-0.0181,-0.0144,-0.0142,-0.0124,-0.0095,-0.0092,-0.0044,-0.0032,-0.0006,0.0024,0.0019,0.0066,0.0081,0.0083,0.0044,0.0041,0.0038,0.0028,0.0054,0,0,0,0,0,-0.024,-0.0242,-0.0214,-0.0216,-0.0209,-0.0178,-0.0167,-0.015,-0.0119,-0.0107,-0.0071,-0.0032,0.0003,0.0025,0.0057,0.0084,0.0119,0.0094,0.0091,0.0088,0.0087,0.0145,0.0147,0.0123,0.0123,0.0123,0,0,-0.0252,-0.024,-0.0241,-0.0223,-0.0205,-0.0198,-0.017,-0.016,-0.0149,-0.01,-0.0078,-0.0044,0.0006,0.0035,0.005,0.0062,0.0111,0.0088,0.0086,0.0086,0.0145,0.0147,0.015,0.0123,0.0123,0.0123,0,0,-0.0277,-0.0266,-0.0275,-0.0261,-0.0242,-0.022,-0.022,-0.0188,-0.0169,-0.0145,-0.0107,-0.0071,-0.0023,0.0019,0.0046,0.0047,0.0089,0.0053,0.0038,0.0093,0.0096,0.0098,0.0135,0.0141,0.0057,0.0057,0.0057,0,-0.0293,-0.0298,-0.0275,-0.0277,-0.0269,-0.0233,-0.0237,-0.0212,-0.0173,-0.0154,-0.0147,-0.0066,-0.0027,0.0023,0.0022,0.0041,0.0071,0.0046,0.0089,0.0093,0.0096,0.0133,0.0141,0.0055,0.0055,0.0055,0.0056,0,-0.0319,-0.0323,-0.0327,-0.0317,-0.0305,-0.0303,-0.0268,-0.0252,-0.0228,-0.0196,-0.0152,-0.0097,-0.0046,-0.0029,-0.0003,0.0042,0.0052,0.0073,0.0096,0.0096,0.0135,0.0143,0.0052,0.0053,0.0053,0.0054,0,0,-0.0354,-0.0348,-0.0351,-0.0355,-0.0327,-0.0321,-0.0301,-0.0269,-0.0254,-0.0211,-0.0182,-0.012,-0.0088,-0.0056,-0.0014,0.0034,0.0081,0.0058,0.0062,0.009,0.0189,0.0148,0.0154,0.0108,0.011,0.0111,0.0202,0,-0.0383,-0.0407,-0.0385,-0.0399,-0.0407,-0.0365,-0.0349,-0.0313,-0.0275,-0.0239,-0.017,-0.0133,-0.0097,-0.0078,-0.0022,0.0055,0.0103,0.0053,0.0189,0.0192,0.0154,0.0163,0.0116,0.0209,0.0211,0.0212,0.0213,0,-0.0415,-0.0427,-0.0455,-0.0444,-0.0442,-0.0442,-0.041,-0.0389,-0.0321,-0.0289,-0.0229,-0.0176,-0.0099,-0.0076,0.0064,0.0029,0.0101,0.0161,0.0166,0.0151,0.0168,0.0214,0.023,0.0229,0.0227,0.0226,0.0225,0,-0.0465,-0.0471,-0.05,-0.0498,-0.0482,-0.0483,-0.0467,-0.0413,-0.0396,-0.0324,-0.0304,-0.0198,-0.0152,-0.0042,0.0076,0.0074,0.0224,0.0244,0.0278,0.0275,0.0306,0.0303,0.0342,0.0342,0.0342,0.0342,0.0342,0,-0.0504,-0.0526,-0.0533,-0.0552,-0.0582,-0.054,-0.0551,-0.0515,-0.0461,-0.0448,-0.0342,-0.0307,-0.0143,-0.0039,0.0071,0.0194,0.0228,0.0274,0.0299,0.0282,0.0275,0.0312,0.0307,0.0345,0.0345,0.0344,0.0343,0,-0.0559,-0.0561,-0.0602,-0.0608,-0.0615,-0.0641,-0.063,-0.063,-0.0563,-0.0542,-0.0525,-0.0382,-0.0248,-0.0089,0.0095,0.0175,0.0304,0.0339,0.0296,0.0317,0.032,0.0312,0.039,0.0389,0.0389,0.0388,0.0388,0,-0.0589,-0.0621,-0.0668,-0.0705,-0.0718,-0.0743,-0.0763,-0.0705,-0.0698,-0.0595,-0.0591,-0.045,-0.035,-0.0115,0.0057,0.0268,0.0294,0.036,0.0352,0.031,0.0327,0.032,0.0312,0.0387,0.0387,0.0387,0.0387,0,-0.0651,-0.0677,-0.0713,-0.0797,-0.0841,-0.087,-0.0885,-0.0885,-0.0809,-0.0759,-0.0649,-0.0502,-0.0348,-0.0142,0.0021,0.0173,0.0318,0.0355,0.0357,0.035,0.0308,0.0323,0.0317,0.0385,0.0385,0.0385,0.0385,0,-0.0702,-0.0751,-0.0809,-0.0873,-0.0937,-0.0967,-0.0964,-0.0935,-0.0904,-0.0781,-0.0753,-0.055,-0.0423,-0.0192,-0.0041,0.0103,0.0141,0.0185,0.0197,0.0201,0.0117,0.0033,0.0047,0,0,0,0,0,-0.0744,-0.0801,-0.0874,-0.0938,-0.0999,-0.102,-0.103,-0.1005,-0.0944,-0.089,-0.0811,-0.0666,-0.0407,-0.0276,-0.0142,-0.0058,0.0158,0.0102,0.0211,0.0375,0.0377,0.0306,0,0,0,0,0,0,-0.0776,-0.0855,-0.0884,-0.0967,-0.1016,-0.1067,-0.107,-0.1026,-0.0974,-0.0897,-0.0759,-0.0656,-0.0406,-0.0497,-0.0149,-0.0099,-0.0016,0.0235,0.0238,0.0373,0.0375,0.0377,0.0305,0,0,0,0,0]}]]